| time (UTC) | temp C | wind direction | speed KPH | gust KPH | rain 1hr cm | rain 24hr cm | rain mn cm | humidity % | barometer mb |
| 20260508174002 | 20 | 322 | 11.3 | 20.9 | 0.00 | 0.00 | 0.00 | 65 | 1020.5 |
| 20260508173503 | 20 | 327 | 9.7 | 20.9 | 0.00 | 0.00 | 0.00 | 64 | 1020.4 |
| 20260508173003 | 20 | 332 | 11.3 | 14.5 | 0.00 | 0.00 | 0.00 | 65 | 1020.4 |
| 20260508172502 | 20 | 323 | 11.3 | 19.3 | 0.00 | 0.00 | 0.00 | 64 | 1020.4 |
| 20260508171502 | 19 | 324 | 11.3 | 19.3 | 0.00 | 0.00 | 0.00 | 64 | 1020.3 |
| 20260508171003 | 19 | 324 | 8.0 | 17.7 | 0.00 | 0.00 | 0.00 | 63 | 1020.4 |
| 20260508170502 | 19 | 334 | 8.0 | 12.9 | 0.00 | 0.00 | 0.00 | 62 | 1020.4 |
| 20260508170002 | 19 | 326 | 9.7 | 16.1 | 0.00 | 0.00 | 0.00 | 61 | 1020.5 |
| 20260508165502 | 19 | 327 | 9.7 | 16.1 | 0.00 | 0.00 | 0.00 | 61 | 1020.5 |
| 20260508165003 | 19 | 324 | 8.0 | 16.1 | 0.00 | 0.00 | 0.00 | 62 | 1020.5 |
| 20260508164502 | 19 | 322 | 8.0 | 17.7 | 0.00 | 0.00 | 0.00 | 61 | 1020.6 |
| 20260508164002 | 19 | 324 | 9.7 | 12.9 | 0.00 | 0.00 | 0.00 | 60 | 1020.5 |
| 20260508163503 | 19 | 319 | 8.0 | 19.3 | 0.00 | 0.00 | 0.00 | 60 | 1020.5 |
| 20260508163004 | 19 | 326 | 8.0 | 16.1 | 0.00 | 0.00 | 0.00 | 60 | 1020.5 |
| 20260508162502 | 18 | 323 | 6.4 | 14.5 | 0.00 | 0.00 | 0.00 | 61 | 1020.6 |
| 20260508162003 | 18 | 321 | 6.4 | 16.1 | 0.00 | 0.00 | 0.00 | 63 | 1020.6 |
| 20260508161502 | 18 | 323 | 6.4 | 8.0 | 0.00 | 0.00 | 0.00 | 63 | 1020.7 |
| 20260508161003 | 18 | 326 | 4.8 | 14.5 | 0.00 | 0.00 | 0.00 | 64 | 1020.7 |
| 20260508160503 | 18 | 350 | 4.8 | 8.0 | 0.00 | 0.00 | 0.00 | 64 | 1020.7 |
| 20260508160003 | 18 | 328 | 4.8 | 9.7 | 0.00 | 0.00 | 0.00 | 66 | 1020.8 |
| 20260508155502 | 18 | 331 | 1.6 | 9.7 | 0.00 | 0.00 | 0.00 | 67 | 1020.8 |
| 20260508155003 | 17 | 322 | 1.6 | 8.0 | 0.00 | 0.00 | 0.00 | 68 | 1020.8 |
| 20260508154503 | 17 | 318 | 1.6 | 6.4 | 0.00 | 0.00 | 0.00 | 69 | 1020.8 |
| 20260508154002 | 17 | 326 | 3.2 | 3.2 | 0.00 | 0.00 | 0.00 | 71 | 1020.8 |
| 20260508153502 | 17 | 322 | 3.2 | 6.4 | 0.00 | 0.00 | 0.00 | 71 | 1020.8 |
| 20260508152503 | 17 | 330 | 4.8 | 6.4 | 0.00 | 0.00 | 0.00 | 73 | 1020.9 |
| 20260508152002 | 16 | 330 | 3.2 | 8.0 | 0.00 | 0.00 | 0.00 | 74 | 1020.9 |
| 20260508151504 | 16 | 336 | 3.2 | 4.8 | 0.00 | 0.00 | 0.00 | 76 | 1020.9 |
| 20260508151002 | 16 | 341 | 1.6 | 4.8 | 0.00 | 0.00 | 0.00 | 78 | 1021.0 |
| 20260508150004 | 15 | 5 | 1.6 | 3.2 | 0.00 | 0.00 | 0.00 | 80 | 1021.1 |
| 20260508145502 | 15 | 6 | 1.6 | 4.8 | 0.00 | 0.00 | 0.00 | 81 | 1020.9 |
| 20260508145003 | 15 | 29 | 0.0 | 3.2 | 0.00 | 0.00 | 0.00 | 82 | 1020.9 |
| 20260508144502 | 14 | 32 | 1.6 | 3.2 | 0.00 | 0.00 | 0.00 | 82 | 1020.9 |
| 20260508144003 | 14 | 33 | 1.6 | 4.8 | 0.00 | 0.00 | 0.00 | 83 | 1020.8 |
| 20260508143503 | 13 | 35 | 1.6 | 3.2 | 0.00 | 0.00 | 0.00 | 84 | 1020.7 |
| 20260508143003 | 13 | 26 | 1.6 | 4.8 | 0.00 | 0.00 | 0.00 | 84 | 1020.7 |
| 20260508142002 | 13 | 279 | 0.0 | 1.6 | 0.00 | 0.00 | 0.00 | 85 | 1020.7 |
| 20260508141502 | 13 | 277 | 0.0 | 3.2 | 0.00 | 0.00 | 0.00 | 85 | 1020.7 |
| 20260508141003 | 13 | 0 | 0.0 | 0.0 | 0.00 | 0.00 | 0.00 | 85 | 1020.7 |
| 20260508140503 | 12 | 276 | 0.0 | 3.2 | 0.00 | 0.00 | 0.00 | 85 | 1020.6 |
| 20260508140004 | 12 | 0 | 0.0 | 0.0 | 0.00 | 0.00 | 0.00 | 85 | 1020.5 |
| 20260508133503 | 12 | 0 | 0.0 | 0.0 | 0.00 | 0.00 | 0.00 | 83 | 1020.4 |
| 20260508132503 | 12 | 0 | 0.0 | 0.0 | 0.00 | 0.00 | 0.00 | 82 | 1020.4 |
| 20260508132003 | 12 | 0 | 0.0 | 0.0 | 0.00 | 0.00 | 0.00 | 82 | 1020.4 |
| 20260508131502 | 12 | 0 | 0.0 | 0.0 | 0.00 | 0.00 | 0.00 | 82 | 1020.4 |
| 20260508130504 | 12 | 0 | 0.0 | 0.0 | 0.00 | 0.00 | 0.00 | 81 | 1020.4 |
| 20260508130002 | 12 | 0 | 0.0 | 0.0 | 0.00 | 0.00 | 0.00 | 82 | 1020.4 |
| 20260508125503 | 12 | 0 | 0.0 | 0.0 | 0.00 | 0.00 | 0.00 | 81 | 1020.2 |
| 20260508125002 | 12 | 276 | 0.0 | 1.6 | 0.00 | 0.00 | 0.00 | 81 | 1020.2 |
| 20260508124503 | 13 | 278 | 0.0 | 1.6 | 0.00 | 0.00 | 0.00 | 80 | 1020.2 |
| 20260508124002 | 13 | 279 | 0.0 | 1.6 | 0.00 | 0.00 | 0.00 | 80 | 1020.1 |
| 20260508123502 | 13 | 279 | 0.0 | 1.6 | 0.00 | 0.00 | 0.00 | 79 | 1020.0 |
| 20260508123003 | 13 | 0 | 0.0 | 0.0 | 0.00 | 0.00 | 0.00 | 79 | 1019.9 |
| 20260508122502 | 13 | 0 | 0.0 | 0.0 | 0.00 | 0.00 | 0.00 | 80 | 1019.9 |
| 20260508122003 | 13 | 279 | 0.0 | 1.6 | 0.00 | 0.00 | 0.00 | 80 | 1019.9 |
| 20260508121503 | 13 | 279 | 0.0 | 1.6 | 0.00 | 0.00 | 0.00 | 80 | 1020.0 |
| 20260508120503 | 13 | 0 | 0.0 | 0.0 | 0.00 | 0.00 | 0.00 | 80 | 1020.0 |
| 20260508120003 | 13 | 0 | 0.0 | 0.0 | 0.00 | 0.00 | 0.00 | 79 | 1020.0 |
| 20260508115503 | 13 | 0 | 0.0 | 0.0 | 0.00 | 0.00 | 0.00 | 79 | 1020.0 |
| 20260508115002 | 13 | 279 | 0.0 | 3.2 | 0.00 | 0.00 | 0.00 | 79 | 1019.9 |
| 20260508114503 | 13 | 280 | 0.0 | 1.6 | 0.00 | 0.00 | 0.00 | 78 | 1020.0 |
| 20260508113502 | 13 | 0 | 0.0 | 0.0 | 0.00 | 0.00 | 0.00 | 79 | 1019.8 |
| 20260508113003 | 13 | 276 | 0.0 | 1.6 | 0.00 | 0.00 | 0.00 | 79 | 1019.8 |
| 20260508112502 | 13 | 271 | 0.0 | 1.6 | 0.00 | 0.00 | 0.00 | 80 | 1019.9 |
| 20260508112003 | 13 | 0 | 0.0 | 0.0 | 0.00 | 0.00 | 0.00 | 80 | 1019.9 |
| 20260508111002 | 12 | 270 | 0.0 | 1.6 | 0.00 | 0.00 | 0.00 | 80 | 1019.9 |
| 20260508110503 | 12 | 270 | 0.0 | 1.6 | 0.00 | 0.00 | 0.00 | 79 | 1019.9 |
| 20260508110004 | 12 | 0 | 0.0 | 0.0 | 0.00 | 0.00 | 0.00 | 79 | 1019.9 |
| 20260508105503 | 12 | 270 | 0.0 | 1.6 | 0.00 | 0.00 | 0.00 | 79 | 1019.9 |
| 20260508105002 | 12 | 267 | 0.0 | 1.6 | 0.00 | 0.00 | 0.00 | 79 | 1019.9 |
| 20260508104503 | 12 | 0 | 0.0 | 0.0 | 0.00 | 0.00 | 0.00 | 79 | 1019.9 |
| 20260508104003 | 12 | 267 | 1.6 | 1.6 | 0.00 | 0.00 | 0.00 | 78 | 1019.9 |
| 20260508103003 | 12 | 260 | 1.6 | 4.8 | 0.00 | 0.00 | 0.00 | 78 | 1020.1 |
| 20260508102503 | 12 | 268 | 1.6 | 3.2 | 0.00 | 0.00 | 0.00 | 79 | 1020.1 |
| 20260508102003 | 12 | 276 | 0.0 | 4.8 | 0.00 | 0.00 | 0.00 | 78 | 1020.1 |
| 20260508101503 | 12 | 281 | 0.0 | 1.6 | 0.00 | 0.00 | 0.00 | 78 | 1020.1 |
| 20260508101002 | 12 | 0 | 0.0 | 0.0 | 0.00 | 0.00 | 0.00 | 78 | 1020.2 |
| 20260508100503 | 12 | 0 | 0.0 | 0.0 | 0.00 | 0.00 | 0.00 | 77 | 1020.1 |
| 20260508100003 | 12 | 282 | 0.0 | 1.6 | 0.00 | 0.00 | 0.00 | 77 | 1020.1 |
| 20260508095503 | 13 | 282 | 0.0 | 1.6 | 0.00 | 0.00 | 0.00 | 76 | 1019.8 |
| 20260508095003 | 13 | 0 | 0.0 | 0.0 | 0.00 | 0.00 | 0.00 | 75 | 1019.9 |
| 20260508093503 | 13 | 0 | 0.0 | 0.0 | 0.00 | 0.00 | 0.00 | 77 | 1020.0 |
| 20260508093003 | 13 | 0 | 0.0 | 0.0 | 0.00 | 0.00 | 0.00 | 77 | 1020.0 |
| 20260508092502 | 13 | 282 | 0.0 | 1.6 | 0.00 | 0.00 | 0.00 | 76 | 1020.0 |
| 20260508092003 | 13 | 283 | 0.0 | 1.6 | 0.00 | 0.00 | 0.00 | 76 | 1020.0 |
| 20260508091503 | 13 | 0 | 0.0 | 0.0 | 0.00 | 0.00 | 0.00 | 77 | 1020.0 |
| 20260508091002 | 13 | 0 | 0.0 | 0.0 | 0.00 | 0.00 | 0.00 | 76 | 1020.0 |
| 20260508090503 | 13 | 283 | 0.0 | 1.6 | 0.00 | 0.00 | 0.00 | 76 | 1020.1 |
| 20260508090003 | 13 | 283 | 0.0 | 1.6 | 0.00 | 0.00 | 0.00 | 76 | 1020.1 |
| 20260508084503 | 13 | 279 | 0.0 | 1.6 | 0.00 | 0.00 | 0.00 | 74 | 1020.1 |
| 20260508084003 | 13 | 0 | 0.0 | 0.0 | 0.00 | 0.00 | 0.00 | 75 | 1020.1 |
| 20260508083503 | 13 | 0 | 0.0 | 0.0 | 0.00 | 0.00 | 0.00 | 76 | 1020.3 |
| 20260508083003 | 13 | 0 | 0.0 | 0.0 | 0.00 | 0.00 | 0.00 | 76 | 1020.3 |
| 20260508082503 | 13 | 0 | 0.0 | 0.0 | 0.00 | 0.00 | 0.00 | 75 | 1020.3 |
| 20260508082003 | 13 | 279 | 0.0 | 3.2 | 0.00 | 0.00 | 0.00 | 76 | 1020.3 |
| 20260508081503 | 13 | 0 | 0.0 | 0.0 | 0.00 | 0.00 | 0.00 | 75 | 1020.4 |
| 20260508080503 | 13 | 280 | 0.0 | 1.6 | 0.00 | 0.00 | 0.00 | 74 | 1020.4 |
| 20260508080003 | 13 | 0 | 0.0 | 0.0 | 0.00 | 0.00 | 0.00 | 74 | 1020.6 |
| 20260508075503 | 13 | 0 | 0.0 | 0.0 | 0.00 | 0.00 | 0.00 | 73 | 1020.6 |
| 20260508075002 | 14 | 0 | 0.0 | 0.0 | 0.00 | 0.00 | 0.00 | 71 | 1020.5 |
| 20260508074003 | 14 | 303 | 0.0 | 1.6 | 0.00 | 0.00 | 0.00 | 71 | 1020.5 |
| 20260508073503 | 14 | 0 | 0.0 | 0.0 | 0.00 | 0.00 | 0.00 | 69 | 1020.5 |
| 20260508073003 | 15 | 0 | 0.0 | 0.0 | 0.00 | 0.00 | 0.00 | 69 | 1020.6 |
| 20260508072503 | 15 | 0 | 0.0 | 0.0 | 0.00 | 0.00 | 0.00 | 71 | 1020.5 |
| 20260508072003 | 15 | 0 | 0.0 | 0.0 | 0.00 | 0.00 | 0.00 | 69 | 1020.5 |
| 20260508071503 | 15 | 0 | 0.0 | 0.0 | 0.00 | 0.00 | 0.00 | 69 | 1020.4 |
| 20260508070503 | 15 | 304 | 1.6 | 3.2 | 0.00 | 0.00 | 0.00 | 66 | 1020.3 |
| 20260508070004 | 15 | 305 | 1.6 | 1.6 | 0.00 | 0.00 | 0.00 | 68 | 1020.4 |
| 20260508065503 | 15 | 305 | 1.6 | 4.8 | 0.00 | 0.00 | 0.00 | 68 | 1020.4 |
| 20260508064002 | 16 | 0 | 0.0 | 0.0 | 0.00 | 0.00 | 0.00 | 68 | 1020.4 |
| 20260508063503 | 16 | 297 | 0.0 | 6.4 | 0.00 | 0.00 | 0.00 | 67 | 1020.5 |
| 20260508063003 | 16 | 0 | 0.0 | 0.0 | 0.00 | 0.00 | 0.00 | 66 | 1020.4 |
| 20260508062503 | 16 | 0 | 0.0 | 0.0 | 0.00 | 0.00 | 0.00 | 65 | 1020.5 |
| 20260508062004 | 16 | 0 | 0.0 | 0.0 | 0.00 | 0.00 | 0.00 | 67 | 1020.5 |
| 20260508061503 | 16 | 294 | 0.0 | 3.2 | 0.00 | 0.00 | 0.00 | 65 | 1020.5 |
| 20260508061003 | 16 | 0 | 0.0 | 0.0 | 0.00 | 0.00 | 0.00 | 66 | 1020.5 |
| 20260508060502 | 16 | 0 | 0.0 | 0.0 | 0.00 | 0.00 | 0.00 | 65 | 1020.4 |
| 20260508060005 | 16 | 0 | 0.0 | 0.0 | 0.00 | 0.00 | 0.00 | 65 | 1020.5 |
| 20260508055503 | 16 | 290 | 0.0 | 3.2 | 0.00 | 0.00 | 0.00 | 65 | 1020.3 |
| 20260508055003 | 16 | 0 | 0.0 | 0.0 | 0.00 | 0.00 | 0.00 | 65 | 1020.3 |
| 20260508054503 | 16 | 284 | 0.0 | 3.2 | 0.00 | 0.00 | 0.00 | 64 | 1020.3 |
| 20260508054003 | 16 | 283 | 0.0 | 3.2 | 0.00 | 0.00 | 0.00 | 64 | 1020.4 |
| 20260508053004 | 16 | 280 | 1.6 | 6.4 | 0.00 | 0.00 | 0.00 | 64 | 1020.4 |
| 20260508052003 | 16 | 274 | 3.2 | 6.4 | 0.00 | 0.00 | 0.00 | 64 | 1020.4 |
| 20260508051503 | 16 | 283 | 1.6 | 9.7 | 0.00 | 0.00 | 0.00 | 64 | 1020.5 |
| 20260508051003 | 16 | 244 | 1.6 | 11.3 | 0.00 | 0.00 | 0.00 | 64 | 1020.5 |
| 20260508050503 | 16 | 0 | 1.6 | 0.0 | 0.00 | 0.00 | 0.00 | 64 | 1020.5 |
| 20260508050003 | 16 | 272 | 3.2 | 6.4 | 0.00 | 0.00 | 0.00 | 64 | 1020.5 |
| 20260508045504 | 16 | 275 | 3.2 | 6.4 | 0.00 | 0.00 | 0.00 | 65 | 1020.5 |
| 20260508044503 | 16 | 239 | 3.2 | 4.8 | 0.00 | 0.00 | 0.00 | 64 | 1020.4 |
| 20260508043503 | 16 | 229 | 3.2 | 6.4 | 0.00 | 0.00 | 0.00 | 64 | 1020.3 |
| 20260508043003 | 16 | 241 | 3.2 | 4.8 | 0.00 | 0.00 | 0.00 | 64 | 1020.3 |
| 20260508042503 | 17 | 244 | 4.8 | 4.8 | 0.00 | 0.00 | 0.00 | 64 | 1020.2 |
| 20260508042003 | 17 | 244 | 6.4 | 4.8 | 0.00 | 0.00 | 0.00 | 64 | 1020.2 |
| 20260508041003 | 17 | 239 | 4.8 | 8.0 | 0.00 | 0.00 | 0.00 | 63 | 1020.1 |
| 20260508040503 | 17 | 250 | 4.8 | 6.4 | 0.00 | 0.00 | 0.00 | 63 | 1020.1 |
| 20260508040004 | 17 | 252 | 4.8 | 6.4 | 0.00 | 0.00 | 0.00 | 63 | 1020.0 |
| 20260508035503 | 17 | 250 | 4.8 | 8.0 | 0.00 | 0.00 | 0.00 | 62 | 1020.0 |
| 20260508034503 | 17 | 254 | 6.4 | 6.4 | 0.00 | 0.00 | 0.00 | 61 | 1019.9 |
| 20260508034004 | 17 | 252 | 6.4 | 8.0 | 0.00 | 0.00 | 0.00 | 61 | 1019.9 |
| 20260508032503 | 18 | 270 | 8.0 | 11.3 | 0.00 | 0.00 | 0.00 | 60 | 1019.6 |
| 20260508032003 | 18 | 267 | 6.4 | 11.3 | 0.00 | 0.00 | 0.00 | 60 | 1019.6 |
| 20260508031503 | 18 | 274 | 4.8 | 9.7 | 0.00 | 0.00 | 0.00 | 59 | 1019.6 |
| 20260508031004 | 18 | 276 | 6.4 | 6.4 | 0.00 | 0.00 | 0.00 | 59 | 1019.6 |
| 20260508030503 | 18 | 268 | 8.0 | 9.7 | 0.00 | 0.00 | 0.00 | 59 | 1019.5 |
| 20260508030004 | 18 | 265 | 6.4 | 11.3 | 0.00 | 0.00 | 0.00 | 58 | 1019.5 |
| 20260508025503 | 18 | 270 | 6.4 | 9.7 | 0.00 | 0.00 | 0.00 | 58 | 1019.5 |
| 20260508025003 | 18 | 272 | 3.2 | 11.3 | 0.00 | 0.00 | 0.00 | 57 | 1019.4 |
| 20260508024003 | 19 | 284 | 3.2 | 3.2 | 0.00 | 0.00 | 0.00 | 57 | 1019.2 |
| 20260508023502 | 19 | 282 | 3.2 | 4.8 | 0.00 | 0.00 | 0.00 | 57 | 1019.3 |
| 20260508023003 | 20 | 283 | 3.2 | 9.7 | 0.00 | 0.00 | 0.00 | 57 | 1019.3 |
| 20260508021504 | 20 | 270 | 6.4 | 11.3 | 0.00 | 0.00 | 0.00 | 55 | 1019.3 |
| 20260508021003 | 20 | 279 | 6.4 | 11.3 | 0.00 | 0.00 | 0.00 | 54 | 1019.3 |
| 20260508020503 | 21 | 293 | 8.0 | 12.9 | 0.00 | 0.00 | 0.00 | 53 | 1019.3 |
| 20260508015503 | 21 | 273 | 11.3 | 16.1 | 0.00 | 0.00 | 0.00 | 52 | 1019.0 |
| 20260508015003 | 21 | 298 | 9.7 | 12.9 | 0.00 | 0.00 | 0.00 | 53 | 1018.9 |
| 20260508014503 | 21 | 303 | 9.7 | 17.7 | 0.00 | 0.00 | 0.00 | 53 | 1019.0 |
| 20260508014004 | 21 | 308 | 9.7 | 16.1 | 0.00 | 0.00 | 0.00 | 52 | 1018.9 |
| 20260508013503 | 21 | 301 | 11.3 | 14.5 | 0.00 | 0.00 | 0.00 | 52 | 1018.8 |
| 20260508013003 | 21 | 300 | 11.3 | 17.7 | 0.00 | 0.00 | 0.00 | 51 | 1018.7 |
| 20260508012503 | 21 | 308 | 11.3 | 19.3 | 0.00 | 0.00 | 0.00 | 51 | 1018.7 |
| 20260508012003 | 22 | 306 | 12.9 | 17.7 | 0.00 | 0.00 | 0.00 | 51 | 1019.0 |
| 20260508011503 | 22 | 305 | 12.9 | 19.3 | 0.00 | 0.00 | 0.00 | 51 | 1019.0 |
| 20260508011004 | 22 | 307 | 11.3 | 24.1 | 0.00 | 0.00 | 0.00 | 50 | 1019.0 |
| 20260508010503 | 22 | 300 | 12.9 | 16.1 | 0.00 | 0.00 | 0.00 | 50 | 1019.1 |
| 20260508010003 | 22 | 309 | 14.5 | 19.3 | 0.00 | 0.00 | 0.00 | 49 | 1019.1 |
| 20260508005503 | 22 | 306 | 14.5 | 20.9 | 0.00 | 0.00 | 0.00 | 49 | 1018.8 |
| 20260508005003 | 22 | 298 | 14.5 | 19.3 | 0.00 | 0.00 | 0.00 | 49 | 1018.8 |
| 20260508004503 | 22 | 290 | 12.9 | 20.9 | 0.00 | 0.00 | 0.00 | 49 | 1018.8 |
| 20260508004003 | 22 | 312 | 14.5 | 22.5 | 0.00 | 0.00 | 0.00 | 48 | 1018.8 |
| 20260508003004 | 22 | 307 | 14.5 | 27.4 | 0.00 | 0.00 | 0.00 | 47 | 1018.8 |
| 20260508002503 | 22 | 306 | 14.5 | 19.3 | 0.00 | 0.00 | 0.00 | 48 | 1018.8 |
| 20260508002003 | 22 | 308 | 16.1 | 25.7 | 0.00 | 0.00 | 0.00 | 47 | 1018.8 |
| 20260508001003 | 22 | 306 | 16.1 | 29.0 | 0.00 | 0.00 | 0.00 | 47 | 1018.8 |
| 20260508000504 | 22 | 306 | 17.7 | 25.7 | 0.00 | 0.00 | 0.00 | 47 | 1018.8 |
| 20260508000003 | 22 | 304 | 17.7 | 24.1 | 0.00 | 0.00 | 0.00 | 46 | 1018.8 |
| 20260507235504 | 22 | 309 | 17.7 | 20.9 | 0.00 | 0.00 | 0.00 | 47 | 1018.8 |
| 20260507235003 | 23 | 311 | 17.7 | 25.7 | 0.00 | 0.00 | 0.00 | 45 | 1018.7 |
| 20260507234503 | 23 | 311 | 19.3 | 30.6 | 0.00 | 0.00 | 0.00 | 45 | 1018.6 |
| 20260507234004 | 23 | 298 | 17.7 | 24.1 | 0.00 | 0.00 | 0.00 | 45 | 1018.6 |
| 20260507233503 | 23 | 302 | 17.7 | 32.2 | 0.00 | 0.00 | 0.00 | 44 | 1018.6 |
| 20260507233005 | 23 | 304 | 17.7 | 25.7 | 0.00 | 0.00 | 0.00 | 44 | 1018.7 |
| 20260507232503 | 23 | 300 | 19.3 | 29.0 | 0.00 | 0.00 | 0.00 | 45 | 1018.7 |
| 20260507232005 | 23 | 303 | 19.3 | 29.0 | 0.00 | 0.00 | 0.00 | 44 | 1018.7 |
| 20260507231503 | 23 | 306 | 17.7 | 27.4 | 0.00 | 0.00 | 0.00 | 44 | 1018.6 |
| 20260507231003 | 23 | 313 | 16.1 | 25.7 | 0.00 | 0.00 | 0.00 | 43 | 1018.7 |
| 20260507230004 | 23 | 297 | 17.7 | 20.9 | 0.00 | 0.00 | 0.00 | 43 | 1018.7 |
| 20260507225503 | 23 | 316 | 16.1 | 22.5 | 0.00 | 0.00 | 0.00 | 43 | 1018.7 |
| 20260507225004 | 24 | 313 | 12.9 | 29.0 | 0.00 | 0.00 | 0.00 | 42 | 1018.7 |
| 20260507224004 | 24 | 289 | 11.3 | 17.7 | 0.00 | 0.00 | 0.00 | 42 | 1018.9 |
| 20260507223503 | 24 | 305 | 14.5 | 17.7 | 0.00 | 0.00 | 0.00 | 43 | 1019.0 |
| 20260507223003 | 24 | 302 | 14.5 | 20.9 | 0.00 | 0.00 | 0.00 | 43 | 1019.0 |
| 20260507222503 | 24 | 318 | 14.5 | 27.4 | 0.00 | 0.00 | 0.00 | 43 | 1019.1 |
| 20260507222004 | 24 | 306 | 12.9 | 20.9 | 0.00 | 0.00 | 0.00 | 43 | 1019.1 |
| 20260507221503 | 24 | 315 | 12.9 | 25.7 | 0.00 | 0.00 | 0.00 | 43 | 1019.3 |
| 20260507221005 | 23 | 307 | 14.5 | 16.1 | 0.00 | 0.00 | 0.00 | 44 | 1019.3 |
| 20260507220503 | 23 | 307 | 14.5 | 17.7 | 0.00 | 0.00 | 0.00 | 44 | 1019.3 |
| 20260507220003 | 23 | 312 | 14.5 | 24.1 | 0.00 | 0.00 | 0.00 | 44 | 1019.4 |
| 20260507215503 | 23 | 323 | 16.1 | 27.4 | 0.00 | 0.00 | 0.00 | 45 | 1019.2 |
| 20260507215003 | 23 | 315 | 16.1 | 27.4 | 0.00 | 0.00 | 0.00 | 44 | 1019.3 |
| 20260507214504 | 23 | 314 | 16.1 | 22.5 | 0.00 | 0.00 | 0.00 | 45 | 1019.4 |
| 20260507214003 | 23 | 320 | 16.1 | 25.7 | 0.00 | 0.00 | 0.00 | 46 | 1019.5 |
| 20260507213504 | 23 | 314 | 14.5 | 24.1 | 0.00 | 0.00 | 0.00 | 47 | 1019.5 |
| 20260507213003 | 22 | 316 | 14.5 | 25.7 | 0.00 | 0.00 | 0.00 | 47 | 1019.6 |
| 20260507212502 | 22 | 318 | 14.5 | 24.1 | 0.00 | 0.00 | 0.00 | 48 | 1019.5 |
| 20260507212002 | 22 | 324 | 12.9 | 25.7 | 0.00 | 0.00 | 0.00 | 49 | 1019.6 |
| 20260507211502 | 22 | 329 | 12.9 | 24.1 | 0.00 | 0.00 | 0.00 | 49 | 1019.6 |
| 20260507211002 | 22 | 319 | 14.5 | 19.3 | 0.00 | 0.00 | 0.00 | 50 | 1019.7 |
| 20260507210002 | 22 | 324 | 14.5 | 25.7 | 0.00 | 0.00 | 0.00 | 50 | 1019.8 |
| 20260507205502 | 21 | 315 | 16.1 | 24.1 | 0.00 | 0.00 | 0.00 | 51 | 1019.8 |
| 20260507205002 | 21 | 321 | 20.9 | 20.9 | 0.00 | 0.00 | 0.00 | 52 | 1019.9 |
| 20260507204502 | 21 | 321 | 20.9 | 29.0 | 0.00 | 0.00 | 0.00 | 52 | 1019.8 |
| 20260507204002 | 21 | 317 | 17.7 | 29.0 | 0.00 | 0.00 | 0.00 | 51 | 1020.0 |
| 20260507203502 | 21 | 315 | 17.7 | 27.4 | 0.00 | 0.00 | 0.00 | 51 | 1019.9 |
| 20260507203002 | 21 | 307 | 17.7 | 22.5 | 0.00 | 0.00 | 0.00 | 51 | 1019.9 |
| 20260507202502 | 21 | 323 | 19.3 | 30.6 | 0.00 | 0.00 | 0.00 | 51 | 1020.0 |
| 20260507202002 | 21 | 316 | 20.9 | 29.0 | 0.00 | 0.00 | 0.00 | 51 | 1020.1 |
| 20260507201002 | 21 | 318 | 19.3 | 33.8 | 0.00 | 0.00 | 0.00 | 51 | 1020.1 |
| 20260507200502 | 21 | 313 | 19.3 | 30.6 | 0.00 | 0.00 | 0.00 | 52 | 1020.2 |
| 20260507200002 | 21 | 317 | 17.7 | 30.6 | 0.00 | 0.00 | 0.00 | 51 | 1020.0 |
| 20260507195502 | 21 | 324 | 20.9 | 29.0 | 0.00 | 0.00 | 0.00 | 52 | 1020.0 |
| 20260507195002 | 21 | 320 | 20.9 | 29.0 | 0.00 | 0.00 | 0.00 | 52 | 1020.0 |
| 20260507194002 | 21 | 318 | 19.3 | 27.4 | 0.00 | 0.00 | 0.00 | 51 | 1020.0 |
| 20260507193502 | 21 | 322 | 17.7 | 29.0 | 0.00 | 0.00 | 0.00 | 51 | 1020.0 |
| 20260507193002 | 21 | 319 | 17.7 | 27.4 | 0.00 | 0.00 | 0.00 | 51 | 1020.0 |
| 20260507192503 | 21 | 322 | 17.7 | 29.0 | 0.00 | 0.00 | 0.00 | 51 | 1020.1 |
| 20260507192002 | 21 | 318 | 17.7 | 27.4 | 0.00 | 0.00 | 0.00 | 51 | 1020.0 |
| 20260507191502 | 21 | 317 | 17.7 | 24.1 | 0.00 | 0.00 | 0.00 | 52 | 1020.2 |
| 20260507191002 | 21 | 313 | 17.7 | 27.4 | 0.00 | 0.00 | 0.00 | 52 | 1020.2 |
| 20260507190502 | 21 | 319 | 16.1 | 29.0 | 0.00 | 0.00 | 0.00 | 51 | 1020.1 |
| 20260507190004 | 21 | 316 | 16.1 | 25.7 | 0.00 | 0.00 | 0.00 | 52 | 1020.3 |
| 20260507185502 | 21 | 316 | 17.7 | 25.7 | 0.00 | 0.00 | 0.00 | 52 | 1020.4 |
| 20260507185002 | 21 | 313 | 16.1 | 29.0 | 0.00 | 0.00 | 0.00 | 52 | 1020.4 |
| 20260507184504 | 21 | 317 | 14.5 | 19.3 | 0.00 | 0.00 | 0.00 | 52 | 1020.4 |
| 20260507184003 | 21 | 323 | 12.9 | 22.5 | 0.00 | 0.00 | 0.00 | 52 | 1020.4 |
| 20260507183502 | 21 | 322 | 12.9 | 20.9 | 0.00 | 0.00 | 0.00 | 52 | 1020.6 |
| 20260507182502 | 21 | 319 | 11.3 | 19.3 | 0.00 | 0.00 | 0.00 | 52 | 1020.6 |
| 20260507181503 | 21 | 329 | 9.7 | 24.1 | 0.00 | 0.00 | 0.00 | 52 | 1020.7 |
| 20260507181003 | 20 | 326 | 9.7 | 17.7 | 0.00 | 0.00 | 0.00 | 52 | 1020.8 |
| 20260507180503 | 20 | 315 | 11.3 | 16.1 | 0.00 | 0.00 | 0.00 | 52 | 1020.9 |
| 20260507180002 | 20 | 314 | 12.9 | 17.7 | 0.00 | 0.00 | 0.00 | 52 | 1021.0 |
| 20260507175502 | 20 | 316 | 14.5 | 20.9 | 0.00 | 0.00 | 0.00 | 53 | 1020.7 |
| 20260507175002 | 20 | 319 | 11.3 | 20.9 | 0.00 | 0.00 | 0.00 | 52 | 1020.7 |
| 20260507174503 | 20 | 321 | 11.3 | 20.9 | 0.00 | 0.00 | 0.00 | 53 | 1020.6 |